Regional Weather Roundup
Issued by NWS

Home | Current Version | Previous Version | Graphics & Text | Print | Product List | Glossary Off
Versions: 1 2 3 4 5 6 7 8 9 10 11 12 13 14 15 16 17 18 19 20 21 22 23 24 25 26 27 28 29 30 31 32 33 34 35 36 37 38 39 40 41 42 43 44 45 46 47 48 49 50

000
ASUS43 KMPX 151510
RWRMN
WEATHER ROUNDUP FOR MINNESOTA
NATIONAL WEATHER SERVICE TWIN CITIES/CHANHASSEN MN
1000 AM CDT MON SEP 15 2014


NOTE: "FAIR" INDICATES FEW OR NO CLOUDS BELOW 12,000 FEET WITH NO
SIGNIFICANT WEATHER AND/OR OBSTRUCTIONS TO VISIBILITY. N/A MEANS
CURRENT SKY AND/OR WEATHER CONDITIONS ARE NOT AVAILABLE.

MNZ060>063-068>070-151600-
   Twin Cities Metro

CITY           SKY/WX    TMP DP  RH WIND       PRES   REMARKS
TWIN CITIES    PTSUNNY   53  47  79 VRB5      30.21R
ST PAUL        PTSUNNY   54  48  80 NW3       30.21S
CRYSTAL        MOSUNNY   55  46  71 VRB3      30.20R
BLAINE         MOSUNNY   54  48  82 N3        30.21R
LAKEVILLE      CLOUDY    52  48  87 CALM      30.20S
EDEN PRAIRIE   PTSUNNY   54  48  80 NW6       30.20R
SOUTH ST PAUL  PTSUNNY   54  49  83 N3        30.20S
LAKE ELMO      CLOUDY    52  46  82 N5        30.22R
$$
MNZ001>005-007-008-013>017-022>024-027-028-151600-
   Northwest Minnesota

CITY           SKY/WX    TMP DP  RH WIND       PRES   REMARKS
BEMIDJI        SUNNY     50  37  59 W8        30.22R
HALLOCK        SUNNY     50  41  71 W7        30.19S
ROSEAU         SUNNY     52  43  71 W5        30.18S
WARROAD        SUNNY     48  41  76 W7        30.18S
THIEF RVR FALL CLOUDY    46  39  76 SW6       30.22R
CROOKSTON      MOSUNNY   48  43  81 SW3       30.24R
FOSSTON        SUNNY     54  39  58 CALM      30.23S
DETROIT LAKES  SUNNY     52  39  62 N5        30.25S
MOORHEAD       SUNNY     52  45  76 CALM      30.26S
PARK RAPIDS    MOSUNNY   50  39  66 NW7       30.23R
MAHNOMEN       FAIR      50  34  53 W3        30.24S
$$
MNZ006-009>011-018-025>026-151600-
   North Central Minnesota

CITY           SKY/WX    TMP DP  RH WIND       PRES   REMARKS
BAUDETTE       SUNNY     50  39  66 VRB6      30.18F
FLAG ISLAND    CLOUDY    48  37  66 W10       30.14S
INTL FALLS     SUNNY     49  42  77 W9        30.17S
WASKISH        SUNNY     52  41  66 CALM      30.20S
BIG FORK       CLOUDY    46  39  76 NW2       30.20S
LONGVILLE      MOSUNNY   50  43  76 CALM      30.21S
GRAND RAPIDS   SUNNY     48  36  61 NW10G16   30.20S
CRANE LAKE     SUNNY     46  43  87 W3        30.18R
ORR            SUNNY     48  37  66 NW6       30.15S
COOK           SUNNY     48  41  76 W6        30.18S
WALKER         FAIR      49  38  64 W5        30.22S
$$
MNZ012-019>021-037-151600-
   Northeast Minnesota

CITY           SKY/WX    TMP DP  RH WIND       PRES   REMARKS
DULUTH         MOSUNNY   50  38  63 NW10G17   30.17S
ELY            PTSUNNY   46  43  87 W6        30.15S
HIBBING        SUNNY     50  40  68 NW14      30.19S
EVELETH        SUNNY     46  39  76 NW12      30.19R
DULUTH HARBOR  SUNNY     54  43  66 NW9       30.19S
TWO HARBORS    SUNNY     52  39  62 N3        30.15S
SILVER BAY     SUNNY     52  43  71 W6        30.14R
GRAND MARAIS     N/A     57  42  57 MISG      30.11S
G MARAIS ARPRT MOSUNNY   50  37  62 W6        30.12R
$$
MNZ029>031-032-039>041-046>048-054>057-064-151600-
   West Central Minnesota

CITY           SKY/WX    TMP DP  RH WIND       PRES   REMARKS
FERGUS FALLS   MOSUNNY   52  43  71 N7        30.26R
WHEATON        SUNNY     54  43  66 NW8       30.28R
MORRIS         SUNNY     54  43  66 NW8       30.24R
ALEXANDRIA     MOSUNNY   54  45  71 NW6       30.25R
ELBOW LAKE     PTSUNNY   50  44  80 N7        30.25R
WADENA         CLOUDY    48  45  87 NW3       30.23R
GLENWOOD       SUNNY     55  45  67 N5        30.24R
APPLETON       MOSUNNY   55  45  67 NW6       30.25R
BENSON         SUNNY     54  46  76 N3        30.25R
ORTONVILLE     PTSUNNY   52  45  76 NW7       30.26R
MADISON        MOSUNNY   57  46  67 NW8       30.25R
WILLMAR        FAIR      55  46  71 N6        30.25R
$$
MNZ033>034-036-042>043-049>051-058-059-151600-
   Central Minnesota

CITY           SKY/WX    TMP DP  RH WIND       PRES   REMARKS
ST CLOUD       SUNNY     56  44  64 N7        30.22R
SAUK CENTRE    FAIR      52  41  67 N5        30.24R
PAYNESVILLE    SUNNY     51  42  71 W7        30.24R
AITKIN         CLOUDY    54  45  71 N9        30.20R
PINE RIVER     CLOUDY    48  43  81 NW3       30.25R
BRAINERD       CLOUDY    50  43  77 N8        30.23R
STAPLES        CLOUDY    48  43  81 N3        30.23R
LONG PRAIRIE   CLOUDY    48  41  76 NW3       30.24R
LITTLE FALLS   PTSUNNY   50  41  71 NW3       30.23R
LITCHFIELD       N/A     55  48  76 N7        30.23R
BUFFALO        MOSUNNY   54  46  74 N6        30.22R
MAPLE LAKE     MOSUNNY   55  48  77 N6        30.22S
$$
MNZ037-044-045-052-053-151600-
   East Central Minnesota

CITY           SKY/WX    TMP DP  RH WIND       PRES   REMARKS
PRINCETON      SUNNY     55  48  76 CALM      30.21R
MORA           SUNNY     50  43  76 N6        30.22R
CAMBRIDGE      SUNNY     55  45  67 NW8       30.19R
RUSH CITY      MOSUNNY   53  45  76 N5        30.21R
MOOSE LAKE     SUNNY     52  41  66 N7        30.18R
HINCKLEY       FAIR      54  46  76 NW10      30.20R
CLOQUET        SUNNY     50  41  71 NW9       30.19R
MCGREGOR       CLOUDY    50  41  71 NW10      30.22R
$$
MNZ071>073-080-081-089-090-097-098-151600-
   Southwest Minnesota

CITY           SKY/WX    TMP DP  RH WIND       PRES   REMARKS
MONTEVIDEO     SUNNY     57  52  82 NW6       30.26R
GRANITE FALLS  SUNNY     53  47  79 NW6       30.26R
CANBY          SUNNY     54  46  75 NW9       30.27R
MARSHALL       SUNNY     54  43  66 NW12      30.24R
REDWOOD FALLS  MOSUNNY   54  49  83 VRB7      30.23R
OLIVIA         SUNNY     54  48  82 N5        30.22S
PIPESTONE      MOSUNNY   52  45  76 N6        30.25R
WINDOM         CLOUDY    52  46  82 N8        30.23R
WORTHINGTON    CLOUDY    50  45  81 N8        30.25R
JACKSON        CLOUDY    52  46  82 VRB8      30.23R
TRACY          SUNNY     53  48  81 N9        30.25R
SLAYTON        CLOUDY    49  46  88 CALM      30.26R
$$
MNZ065>067-074>077-082>085-091>093-151600-
   South Central Minnesota

CITY           SKY/WX    TMP DP  RH WIND       PRES   REMARKS
MANKATO        CLOUDY    52  45  76 NW3       30.22R
NEW ULM        CLOUDY    52  52 100 N5        30.22R
ST JAMES       CLOUDY    54  48  82 NW5       30.23S
FAIRMONT       PTSUNNY   52  45  76 N8        30.22R
GLENCOE        MOSUNNY   54  46  74 CALM      30.21R
FARIBAULT      CLOUDY    54  48  82 CALM      30.21S
OWATONNA       CLOUDY    52  46  82 CALM      30.21R
WASECA         CLOUDY    50  45  81 N6        30.23R
ALBERT LEA     CLOUDY    50  48  93 N6        30.20R
$$
MNZ078>079-086>088-094>096-151600-
   Southeast Minnesota

CITY           SKY/WX    TMP DP  RH WIND       PRES   REMARKS
ROCHESTER      LGT RAIN  49  46  90 N7        30.20R
RED WING       CLOUDY    52  50  93 W6        30.19R
STANTON        CLOUDY    52  49  88 CALM      30.19S
DODGE CENTER   CLOUDY    52  48  87 N5        30.20S
WINONA         RAIN      52  50  93 NW7       30.20R
AUSTIN         LGT RAIN  48  46  93 NE9       30.19S
PRESTON        LGT RAIN  48  48 100 N8        30.20R
$$
ABBREVIATIONS USED IN REMARKS
   TC - TEMPERATURES IN CELSIUS
  WCI - WIND CHILL INDEX
   HX - HEAT INDEX
  VSB - VISIBILITY
$$


USA.gov is the U.S. government's official web portal to all federal, state and local government web resources and services.